Time,TemperatureF,DewpointF,PressureIn,WindDirection,WindDirectionDegrees,WindSpeedMPH,WindSpeedGustMPH,Humidity,HourlyPrecipIn,Conditions,Clouds,dailyrainin,SoftwareType,DateUTC
2017-11-18 00:02:00,33.4,32.0,30.13,East,90,0.0,-999.0,96,0.00,,,0.00,,2017-11-18 05:02:00,
2017-11-18 00:07:00,33.4,32.0,30.14,ENE,68,0.0,-999.0,96,0.00,,,0.00,,2017-11-18 05:07:00,
2017-11-18 00:13:00,33.4,32.0,30.13,NE,45,0.0,-999.0,96,0.00,,,0.00,,2017-11-18 05:13:00,
2017-11-18 00:18:00,33.0,32.0,30.13,ESE,113,0.0,-999.0,96,0.00,,,0.00,,2017-11-18 05:18:00,
2017-11-18 00:24:00,33.0,32.0,30.13,ESE,113,0.0,-999.0,96,0.00,,,0.00,,2017-11-18 05:24:00,
2017-11-18 00:29:00,33.0,32.0,30.13,ESE,113,0.0,-999.0,96,0.00,,,0.00,,2017-11-18 05:29:00,
2017-11-18 00:35:00,33.2,32.0,30.14,ESE,113,0.0,-999.0,96,0.00,,,0.00,,2017-11-18 05:35:00,
2017-11-18 00:41:00,32.9,32.0,30.14,ESE,113,0.0,-999.0,96,0.00,,,0.00,,2017-11-18 05:41:00,
2017-11-18 00:46:00,32.9,32.0,30.14,East,90,0.0,-999.0,96,0.00,,,0.00,,2017-11-18 05:46:00,
2017-11-18 00:52:00,32.9,32.0,30.14,ESE,113,0.0,-999.0,96,0.00,,,0.00,,2017-11-18 05:52:00,
2017-11-18 00:58:00,32.6,31.0,30.14,ESE,113,0.0,-999.0,96,0.00,,,0.00,,2017-11-18 05:58:00,
2017-11-18 01:03:00,32.6,31.0,30.14,ESE,113,0.0,-999.0,96,0.00,,,0.00,,2017-11-18 06:03:00,
2017-11-18 01:09:00,32.5,31.0,30.13,ESE,113,0.0,-999.0,96,0.00,,,0.00,,2017-11-18 06:09:00,
2017-11-18 01:14:00,32.6,31.0,30.14,ESE,113,0.0,-999.0,96,0.00,,,0.00,,2017-11-18 06:14:00,
2017-11-18 01:20:00,32.5,31.0,30.14,East,90,0.0,-999.0,96,0.00,,,0.00,,2017-11-18 06:20:00,
2017-11-18 01:25:00,32.5,31.0,30.14,East,90,0.0,-999.0,96,0.00,,,0.00,,2017-11-18 06:25:00,
2017-11-18 01:31:00,32.5,31.0,30.13,ESE,113,0.0,-999.0,96,0.00,,,0.00,,2017-11-18 06:31:00,
2017-11-18 01:36:00,32.4,31.0,30.13,ESE,113,0.0,-999.0,96,0.00,,,0.00,,2017-11-18 06:36:00,
2017-11-18 01:42:00,32.4,31.0,30.13,ESE,113,0.0,-999.0,96,0.00,,,0.00,,2017-11-18 06:42:00,
2017-11-18 01:47:00,32.2,31.0,30.13,ESE,113,0.0,-999.0,96,0.00,,,0.00,,2017-11-18 06:47:00,
2017-11-18 01:53:00,32.2,31.0,30.12,East,90,0.0,-999.0,96,0.00,,,0.00,,2017-11-18 06:53:00,
2017-11-18 01:58:00,32.4,31.0,30.12,SE,135,0.0,-999.0,96,0.00,,,0.00,,2017-11-18 06:58:00,
2017-11-18 02:04:00,32.2,31.0,30.12,East,90,0.0,-999.0,96,0.00,,,0.00,,2017-11-18 07:04:00,
2017-11-18 02:09:00,32.2,31.0,30.12,NW,315,0.0,-999.0,96,0.00,,,0.00,,2017-11-18 07:09:00,
2017-11-18 02:15:00,32.5,32.0,30.12,WNW,293,0.0,-999.0,98,0.00,,,0.00,,2017-11-18 07:15:00,
2017-11-18 02:20:00,32.4,31.0,30.12,West,270,0.0,-999.0,98,0.00,,,0.00,,2017-11-18 07:20:00,
2017-11-18 02:26:00,32.2,31.0,30.11,ESE,113,0.0,-999.0,98,0.00,,,0.00,,2017-11-18 07:26:00,
2017-11-18 02:31:00,32.2,31.0,30.12,ESE,113,0.0,-999.0,98,0.00,,,0.00,,2017-11-18 07:31:00,
2017-11-18 02:36:00,32.4,31.0,30.12,ESE,113,0.0,-999.0,98,0.00,,,0.00,,2017-11-18 07:36:00,
2017-11-18 02:42:00,32.2,31.0,30.12,East,90,0.0,-999.0,98,0.00,,,0.00,,2017-11-18 07:42:00,
2017-11-18 02:47:00,32.2,31.0,30.12,ESE,113,0.0,-999.0,98,0.00,,,0.00,,2017-11-18 07:47:00,
2017-11-18 02:53:00,32.4,31.0,30.12,ESE,113,0.0,-999.0,98,0.00,,,0.00,,2017-11-18 07:53:00,
2017-11-18 02:58:00,32.2,31.0,30.12,SE,135,0.0,-999.0,98,0.00,,,0.00,,2017-11-18 07:58:00,
2017-11-18 03:04:00,32.2,31.0,30.12,WSW,248,0.0,-999.0,96,0.00,,,0.00,,2017-11-18 08:04:00,
2017-11-18 03:09:00,32.2,31.0,30.12,South,180,0.0,-999.0,96,0.00,,,0.00,,2017-11-18 08:09:00,
2017-11-18 03:15:00,32.4,31.0,30.11,ESE,113,0.0,-999.0,98,0.00,,,0.00,,2017-11-18 08:15:00,
2017-11-18 03:20:00,32.2,31.0,30.11,ESE,113,0.0,-999.0,98,0.00,,,0.00,,2017-11-18 08:20:00,
2017-11-18 03:26:00,32.4,31.0,30.11,ESE,113,0.0,-999.0,98,0.00,,,0.00,,2017-11-18 08:26:00,
2017-11-18 03:31:00,32.4,31.0,30.10,ESE,113,0.0,-999.0,98,0.00,,,0.00,,2017-11-18 08:31:00,
2017-11-18 03:37:00,32.4,31.0,30.10,ESE,113,0.0,-999.0,98,0.00,,,0.00,,2017-11-18 08:37:00,
2017-11-18 03:42:00,32.4,31.0,30.10,SE,135,0.0,-999.0,98,0.00,,,0.00,,2017-11-18 08:42:00,
2017-11-18 03:48:00,32.5,31.0,30.10,ESE,113,0.0,-999.0,98,0.00,,,0.00,,2017-11-18 08:48:00,
2017-11-18 03:53:00,32.5,31.0,30.09,ESE,113,0.0,-999.0,98,0.00,,,0.00,,2017-11-18 08:53:00,
2017-11-18 03:59:00,32.5,31.0,30.09,NNW,338,0.0,-999.0,98,0.00,,,0.00,,2017-11-18 08:59:00,
2017-11-18 04:04:00,33.0,32.0,30.10,West,270,0.0,-999.0,98,0.00,,,0.00,,2017-11-18 09:04:00,
2017-11-18 04:10:00,33.0,32.0,30.10,ESE,113,0.0,-999.0,98,0.00,,,0.00,,2017-11-18 09:10:00,
2017-11-18 04:15:00,33.0,32.0,30.09,ESE,113,0.0,-999.0,98,0.00,,,0.00,,2017-11-18 09:15:00,
2017-11-18 04:20:00,33.0,32.0,30.10,East,90,0.0,-999.0,98,0.00,,,0.00,,2017-11-18 09:20:00,
2017-11-18 04:26:00,33.2,33.0,30.09,ESE,113,0.0,-999.0,98,0.00,,,0.00,,2017-11-18 09:26:00,
2017-11-18 04:31:00,33.2,33.0,30.08,ESE,113,0.0,-999.0,98,0.00,,,0.00,,2017-11-18 09:31:00,
2017-11-18 04:37:00,33.2,33.0,30.08,ESE,113,0.0,-999.0,98,0.00,,,0.00,,2017-11-18 09:37:00,
2017-11-18 04:42:00,33.2,33.0,30.08,ESE,113,0.0,-999.0,98,0.00,,,0.00,,2017-11-18 09:42:00,
2017-11-18 04:48:00,33.5,33.0,30.09,ESE,113,0.0,-999.0,98,0.00,,,0.00,,2017-11-18 09:48:00,
2017-11-18 04:53:00,33.5,33.0,30.08,ESE,113,0.0,-999.0,98,0.00,,,0.00,,2017-11-18 09:53:00,
2017-11-18 04:59:00,33.5,33.0,30.07,ESE,113,0.0,-999.0,98,0.00,,,0.00,,2017-11-18 09:59:00,
2017-11-18 05:10:00,33.8,33.0,30.08,West,270,0.0,-999.0,98,0.00,,,0.00,,2017-11-18 10:10:00,
2017-11-18 05:16:00,34.0,33.0,30.09,West,270,0.0,-999.0,98,0.00,,,0.00,,2017-11-18 10:16:00,
2017-11-18 05:21:00,34.2,33.0,30.08,West,270,0.0,-999.0,98,0.00,,,0.00,,2017-11-18 10:21:00,
2017-11-18 05:27:00,34.5,34.0,30.09,West,270,0.0,-999.0,98,0.00,,,0.00,,2017-11-18 10:27:00,
2017-11-18 05:32:00,34.7,34.0,30.09,NE,45,0.0,-999.0,98,0.00,,,0.00,,2017-11-18 10:32:00,
2017-11-18 05:38:00,34.9,34.0,30.09,ESE,113,0.0,-999.0,98,0.00,,,0.00,,2017-11-18 10:38:00,
2017-11-18 05:43:00,34.9,34.0,30.09,East,90,0.0,-999.0,98,0.00,,,0.00,,2017-11-18 10:43:00,
2017-11-18 05:49:00,35.1,34.0,30.09,ESE,113,0.0,-999.0,98,0.00,,,0.00,,2017-11-18 10:49:00,
2017-11-18 05:54:00,35.4,35.0,30.09,ESE,113,0.0,-999.0,98,0.00,,,0.00,,2017-11-18 10:54:00,
2017-11-18 06:00:00,35.4,35.0,30.08,ESE,113,0.0,-999.0,98,0.00,,,0.00,,2017-11-18 11:00:00,
2017-11-18 06:05:00,35.1,34.0,30.08,SE,135,0.0,-999.0,98,0.00,,,0.00,,2017-11-18 11:05:00,
2017-11-18 06:11:00,35.1,34.0,30.08,ESE,113,0.0,-999.0,98,0.00,,,0.00,,2017-11-18 11:11:00,
2017-11-18 06:16:00,35.1,34.0,30.07,SW,225,0.0,-999.0,98,0.00,,,0.00,,2017-11-18 11:16:00,
2017-11-18 06:22:00,35.1,34.0,30.07,ESE,113,0.0,-999.0,98,0.00,,,0.00,,2017-11-18 11:22:00,
2017-11-18 06:27:00,35.1,34.0,30.07,East,90,0.0,-999.0,98,0.00,,,0.00,,2017-11-18 11:27:00,
2017-11-18 06:32:00,35.1,34.0,30.07,ESE,113,0.0,-999.0,98,0.00,,,0.00,,2017-11-18 11:32:00,
2017-11-18 06:38:00,35.4,35.0,30.06,ESE,113,0.0,-999.0,98,0.00,,,0.00,,2017-11-18 11:38:00,
2017-11-18 06:43:00,35.4,35.0,30.07,ESE,113,0.0,-999.0,98,0.00,,,0.00,,2017-11-18 11:43:00,
2017-11-18 06:49:00,35.4,35.0,30.06,ESE,113,0.0,-999.0,98,0.00,,,0.00,,2017-11-18 11:49:00,
2017-11-18 06:54:00,35.1,34.0,30.06,ESE,113,0.0,-999.0,98,0.00,,,0.00,,2017-11-18 11:54:00,
2017-11-18 07:00:00,35.0,34.0,30.06,ESE,113,0.0,-999.0,98,0.00,,,0.00,,2017-11-18 12:00:00,
2017-11-18 07:05:00,35.0,34.0,30.05,ESE,113,0.0,-999.0,98,0.00,,,0.00,,2017-11-18 12:05:00,
2017-11-18 07:11:00,35.0,34.0,30.05,West,270,0.0,-999.0,98,0.00,,,0.00,,2017-11-18 12:11:00,
2017-11-18 07:16:00,35.0,34.0,30.05,ENE,68,0.0,-999.0,98,0.00,,,0.00,,2017-11-18 12:16:00,
2017-11-18 07:22:00,35.1,34.0,30.05,West,270,0.0,-999.0,98,0.00,,,0.00,,2017-11-18 12:22:00,
2017-11-18 07:27:00,35.1,34.0,30.05,NNW,338,0.0,-999.0,98,0.00,,,0.00,,2017-11-18 12:27:00,
2017-11-18 07:33:00,35.4,35.0,30.05,North,0,0.0,-999.0,98,0.00,,,0.00,,2017-11-18 12:33:00,
2017-11-18 07:38:00,35.9,35.0,30.05,North,0,0.0,-999.0,98,0.00,,,0.00,,2017-11-18 12:38:00,
2017-11-18 07:44:00,36.7,36.0,30.05,North,0,0.0,-999.0,98,0.00,,,0.00,,2017-11-18 12:44:00,
2017-11-18 07:49:00,37.0,36.0,30.05,East,90,0.0,-999.0,98,0.00,,,0.00,,2017-11-18 12:49:00,
2017-11-18 07:55:00,37.0,36.0,30.05,NE,45,0.0,-999.0,98,0.00,,,0.00,,2017-11-18 12:55:00,
2017-11-18 08:00:00,37.2,36.0,30.06,WNW,293,0.0,-999.0,98,0.00,,,0.00,,2017-11-18 13:00:00,
2017-11-18 08:06:00,37.8,37.0,30.05,WNW,293,0.0,-999.0,98,0.00,,,0.00,,2017-11-18 13:06:00,
2017-11-18 08:12:00,38.2,38.0,30.05,NNE,23,0.0,-999.0,98,0.00,,,0.00,,2017-11-18 13:12:00,
2017-11-18 08:17:00,39.0,38.0,30.05,ENE,68,0.0,-999.0,98,0.00,,,0.00,,2017-11-18 13:17:00,
2017-11-18 08:23:00,39.9,39.0,30.05,East,90,0.0,-999.0,98,0.00,,,0.00,,2017-11-18 13:23:00,
2017-11-18 08:28:00,40.5,40.0,30.05,South,180,0.0,-999.0,98,0.00,,,0.00,,2017-11-18 13:28:00,
2017-11-18 08:34:00,42.4,41.0,30.05,SSW,203,0.0,-999.0,96,0.00,,,0.00,,2017-11-18 13:34:00,
2017-11-18 08:39:00,43.2,42.0,30.04,ESE,113,0.0,-999.0,96,0.00,,,0.00,,2017-11-18 13:39:00,
2017-11-18 08:44:00,44.0,42.0,30.04,East,90,0.0,-999.0,93,0.00,,,0.00,,2017-11-18 13:44:00,
2017-11-18 08:50:00,45.0,43.0,30.03,East,90,0.0,-999.0,93,0.00,,,0.00,,2017-11-18 13:50:00,
2017-11-18 08:55:00,46.7,43.0,30.04,NNW,338,0.0,-999.0,88,0.00,,,0.00,,2017-11-18 13:55:00,
2017-11-18 09:01:00,48.5,44.0,30.03,North,0,0.0,-999.0,85,0.00,,,0.00,,2017-11-18 14:01:00,
2017-11-18 09:06:00,50.1,44.0,30.03,SW,225,0.0,-999.0,80,0.00,,,0.00,,2017-11-18 14:06:00,
2017-11-18 09:12:00,51.8,44.0,30.03,ESE,113,0.0,-999.0,75,0.00,,,0.00,,2017-11-18 14:12:00,
2017-11-18 09:17:00,53.5,45.0,30.03,WNW,293,0.0,-999.0,73,0.00,,,0.00,,2017-11-18 14:17:00,
2017-11-18 09:23:00,56.0,45.0,30.03,West,270,0.0,-999.0,66,0.00,,,0.00,,2017-11-18 14:23:00,
2017-11-18 09:28:00,57.3,46.0,30.03,WSW,248,0.0,-999.0,65,0.00,,,0.00,,2017-11-18 14:28:00,
2017-11-18 09:34:00,57.5,45.0,30.02,ESE,113,0.0,-999.0,63,0.00,,,0.00,,2017-11-18 14:34:00,
2017-11-18 09:39:00,58.4,46.0,30.03,West,270,0.0,-999.0,65,0.00,,,0.00,,2017-11-18 14:39:00,
2017-11-18 09:45:00,60.0,46.0,30.02,East,90,0.0,-999.0,61,0.00,,,0.00,,2017-11-18 14:45:00,
2017-11-18 09:50:00,61.0,46.0,30.03,NNW,338,0.0,-999.0,59,0.00,,,0.00,,2017-11-18 14:50:00,
2017-11-18 09:56:00,61.5,45.0,30.02,NE,45,0.0,-999.0,55,0.00,,,0.00,,2017-11-18 14:56:00,
2017-11-18 10:01:00,61.1,43.0,30.02,WNW,293,0.0,-999.0,53,0.00,,,0.00,,2017-11-18 15:01:00,
2017-11-18 10:07:00,60.3,43.0,30.01,NW,315,0.0,-999.0,54,0.00,,,0.00,,2017-11-18 15:07:00,
2017-11-18 10:12:00,61.1,43.0,30.00,West,270,0.0,-999.0,53,0.00,,,0.00,,2017-11-18 15:12:00,
2017-11-18 10:18:00,62.4,44.0,30.00,NNE,23,0.0,-999.0,51,0.00,,,0.00,,2017-11-18 15:18:00,
2017-11-18 10:23:00,63.4,45.0,30.00,NNE,23,0.0,-999.0,50,0.00,,,0.00,,2017-11-18 15:23:00,
2017-11-18 10:29:00,63.6,45.0,29.99,ESE,113,0.0,-999.0,50,0.00,,,0.00,,2017-11-18 15:29:00,
2017-11-18 10:34:00,63.9,44.0,29.99,NNE,23,0.0,-999.0,49,0.00,,,0.00,,2017-11-18 15:34:00,
2017-11-18 10:39:00,65.6,44.0,29.99,SW,225,0.0,-999.0,45,0.00,,,0.00,,2017-11-18 15:39:00,
2017-11-18 10:45:00,65.8,44.0,29.98,West,270,0.0,-999.0,45,0.00,,,0.00,,2017-11-18 15:45:00,
2017-11-18 10:50:00,64.8,43.0,29.98,WNW,293,0.0,-999.0,45,0.00,,,0.00,,2017-11-18 15:50:00,
2017-11-18 10:56:00,63.4,43.0,29.98,NNE,23,0.0,-999.0,48,0.00,,,0.00,,2017-11-18 15:56:00,
2017-11-18 11:01:00,63.2,43.0,29.97,ESE,113,0.0,-999.0,48,0.00,,,0.00,,2017-11-18 16:01:00,
2017-11-18 11:07:00,62.7,42.0,29.97,West,270,0.0,-999.0,48,0.00,,,0.00,,2017-11-18 16:07:00,
2017-11-18 11:14:00,63.0,43.0,29.96,WNW,293,0.0,-999.0,48,0.00,,,0.00,,2017-11-18 16:14:00,
2017-11-18 11:20:00,62.7,43.0,29.95,NW,315,0.0,-999.0,49,0.00,,,0.00,,2017-11-18 16:20:00,
2017-11-18 11:25:00,62.5,43.0,29.95,NNW,338,0.0,-999.0,49,0.00,,,0.00,,2017-11-18 16:25:00,
2017-11-18 11:32:00,62.4,44.0,29.94,NNW,338,0.0,-999.0,50,0.00,,,0.00,,2017-11-18 16:32:00,
2017-11-18 11:38:00,62.1,43.0,29.94,NW,315,0.0,-999.0,50,0.00,,,0.00,,2017-11-18 16:38:00,
2017-11-18 11:44:00,62.4,44.0,29.93,ESE,113,0.0,-999.0,51,0.00,,,0.00,,2017-11-18 16:44:00,
2017-11-18 11:49:00,62.5,45.0,29.92,NNE,23,0.0,-999.0,54,0.00,,,0.00,,2017-11-18 16:49:00,
2017-11-18 11:55:00,62.4,45.0,29.91,West,270,0.0,-999.0,53,0.00,,,0.00,,2017-11-18 16:55:00,
2017-11-18 12:00:00,62.4,45.0,29.91,SE,135,0.0,-999.0,54,0.00,,,0.00,,2017-11-18 17:00:00,
2017-11-18 12:07:00,63.0,46.0,29.91,ESE,113,0.0,-999.0,55,0.00,,,0.00,,2017-11-18 17:07:00,
2017-11-18 12:13:00,63.4,47.0,29.90,SSW,203,0.0,-999.0,55,0.00,,,0.00,,2017-11-18 17:13:00,
2017-11-18 12:19:00,63.6,47.0,29.89,West,270,0.0,-999.0,55,0.00,,,0.00,,2017-11-18 17:19:00,
2017-11-18 12:25:00,63.9,47.0,29.89,South,180,0.0,-999.0,55,0.00,,,0.00,,2017-11-18 17:25:00,
2017-11-18 12:31:00,64.1,48.0,29.88,SSE,158,0.0,-999.0,56,0.00,,,0.00,,2017-11-18 17:31:00,
2017-11-18 12:39:00,64.4,49.0,29.88,NNW,338,0.0,-999.0,58,0.00,,,0.00,,2017-11-18 17:39:00,
2017-11-18 12:44:00,64.4,49.0,29.87,NE,45,0.0,-999.0,59,0.00,,,0.00,,2017-11-18 17:44:00,
2017-11-18 12:50:00,64.8,50.0,29.87,WNW,293,0.0,-999.0,59,0.00,,,0.00,,2017-11-18 17:50:00,
2017-11-18 12:57:00,65.0,50.0,29.86,NE,45,0.0,-999.0,59,0.00,,,0.00,,2017-11-18 17:57:00,
2017-11-18 13:03:00,65.2,50.0,29.86,NNE,23,0.0,-999.0,59,0.00,,,0.00,,2017-11-18 18:03:00,
2017-11-18 13:09:00,65.8,51.0,29.86,ENE,68,0.0,-999.0,59,0.00,,,0.00,,2017-11-18 18:09:00,
2017-11-18 13:17:00,65.8,51.0,29.86,North,0,0.0,-999.0,59,0.00,,,0.00,,2017-11-18 18:17:00,
2017-11-18 13:24:00,65.6,50.0,29.86,WNW,293,0.0,-999.0,59,0.00,,,0.00,,2017-11-18 18:24:00,
2017-11-18 13:29:00,65.0,51.0,29.85,WNW,293,0.0,-999.0,61,0.00,,,0.00,,2017-11-18 18:29:00,
2017-11-18 13:35:00,65.5,51.0,29.84,SSE,158,0.0,-999.0,61,0.00,,,0.00,,2017-11-18 18:35:00,
2017-11-18 13:41:00,65.9,52.0,29.84,SSW,203,0.0,-999.0,61,0.00,,,0.00,,2017-11-18 18:41:00,
2017-11-18 13:46:00,66.4,52.0,29.83,NE,45,0.0,-999.0,61,0.00,,,0.00,,2017-11-18 18:46:00,
2017-11-18 13:52:00,67.1,53.0,29.83,NNW,338,0.0,-999.0,61,0.00,,,0.00,,2017-11-18 18:52:00,
2017-11-18 14:00:00,67.6,53.0,29.82,ENE,68,0.0,-999.0,60,0.00,,,0.00,,2017-11-18 19:00:00,
2017-11-18 14:06:00,67.8,53.0,29.82,North,0,0.0,-999.0,61,0.00,,,0.00,,2017-11-18 19:06:00,
2017-11-18 14:11:00,67.6,54.0,29.82,WNW,293,0.0,-999.0,61,0.00,,,0.00,,2017-11-18 19:11:00,
2017-11-18 14:17:00,67.5,54.0,29.81,West,270,0.0,-999.0,61,0.00,,,0.00,,2017-11-18 19:17:00,
2017-11-18 14:22:00,67.3,54.0,29.81,West,270,0.0,-999.0,63,0.00,,,0.00,,2017-11-18 19:22:00,
2017-11-18 14:28:00,67.3,54.0,29.81,WNW,293,0.0,-999.0,63,0.00,,,0.00,,2017-11-18 19:28:00,